Location: Unspecified
(34.1478°N, 0.0000°E)
Time: 10:17:00
(UTC+00:00)

ISS - Visible Passes

Search period start: 27 January 2021 00:00
Search period end: 06 February 2021 00:00
Orbit: 418 x 421 km, 51.6° (Epoch: 27 January)

Date Brightness Start Highest point End Pass type
(mag) Time Alt. Az. Time Alt. Az. Time Alt. Az.
02 Feb -1.7 18:44:54 10° N 18:46:29 15° NNE 18:46:29 15° NNE visible
03 Feb -1.5 17:58:26 10° N 17:59:28 11° NNE 18:00:28 10° NE visible
03 Feb -1.4 19:33:23 10° NW 19:34:31 19° NW 19:34:31 19° NW visible
04 Feb -3.3 18:46:06 10° NNW 18:49:20 40° NE 18:49:43 38° ENE visible
05 Feb -2.5 17:58:58 10° NNW 18:01:48 24° NE 18:04:38 10° E visible
05 Feb -1.7 19:35:39 10° WNW 19:38:11 27° WSW 19:38:11 27° WSW visible
